This demonstration page uses our WeatherBlox Daily Observations layout. Learn more.

Left ArrowRight Arrow

Hourly Observations for May 24, 2015

Temp ( °F °C ) Dew Point ( °F °C ) Humidity (%) Winds ( mph kmh ) Pressure ( in mb ) Visibility ( mi km ) Precip ( " mm )
12:53 am 00:53 Cloudy 59 15 57 13.9 93 93 ESE 10 17 29.95 1014 10 16 0.00 0.00
1:53 am 01:53 Cloudy 59 15 57 13.9 93 93 E 7 11 29.93 1014 9 14 0.00 0.00
2:04 am 02:04 Cloudy 59 15 57 14 94 94 E 9 15 29.91 1013 8 13 0.00 0.00
2:46 am 02:46 Cloudy 59 15 58 14.4 96 96 ESE 8 13 29.88 1012 8 13 0.00 0.00
2:53 am 02:53 Cloudy with Mist and Fog 59 15 58 14.4 96 96 ESE 7 11 29.89 1012 6 10 0.00 0.00
3:06 am 03:06 Cloudy with Mist and Fog 59 15 57 14 94 94 E 7 11 29.85 1011 4 6 0.00 0.00
3:53 am 03:53 Cloudy with Mist and Fog 59 15 58 14.4 96 96 E 7 11 29.87 1012 3 4 0.00 0.00
4:51 am 04:51 Cloudy with Light Rain 59 15 57 14 94 94 ESE 5 7 29.88 1012 2 2 0.00 0.03
4:53 am 04:53 Cloudy with Mist and Fog 59 15 58 14.4 96 96 ESE 5 7 29.88 1012 1 2 0.00 0.03
5:06 am 05:06 Mostly Cloudy with Mist and Fog 59 15 57 14 94 94 ESE 5 7 29.85 1011 1 1 0.00 0.00
5:53 am 05:53 Mostly Cloudy with Mist and Fog 59 15 59 15 100 100 S 3 6 29.88 1012 1 2 0.00 0.03
6:33 am 06:33 Mostly Cloudy with Fog 59 15 58 14.4 96 96 SSE 3 6 29.88 1012 1 1 0.01 0.25
6:53 am 06:53 Mostly Cloudy with Fog 59 15 58 14.4 96 96 VRB 3 6 29.88 1012 1 1 0.01 0.25
7:37 am 07:37 Cloudy with Mist and Fog 59 15 59 15 100 100 SE 5 7 29.88 1012 1 2 0.00 0.00
7:53 am 07:53 Cloudy with Light Rain 59 15 58 14.4 96 96 SSE 5 7 29.88 1012 1 2 0.00 0.03
8:07 am 08:07 Cloudy with Mist and Fog 59 15 59 15 100 100 SE 5 7 29.85 1011 3 4 0.00 0.03
8:15 am 08:15 Cloudy with Mist and Fog 59 15 59 15 100 100 SSE 3 6 29.85 1011 3 5 0.00 0.03
8:53 am 08:53 Cloudy 59 15 58 14.4 96 96 VRB 3 6 29.85 1011 9 14 0.00 0.03
9:19 am 09:19 Cloudy 61 16.1 58 14.4 90 90 Calm 29.83 1010 10 16 0.00 0.00
9:53 am 09:53 Mostly Cloudy 63 17.2 58 14.4 84 84 Calm 29.83 1010 10 16 0.00 0.00
10:13 am 10:13 Mostly Cloudy 64 17.8 59 15 84 84 Calm 29.80 1009 10 16 0.00 0.00
10:22 am 10:22 Mostly Cloudy 64 18 57 14 78 78 Calm 29.80 1009 10 16 0.00 0.00
10:53 am 10:53 Cloudy 63 17.2 57 13.9 81 81 W 6 9 29.83 1010 10 16 0.00 0.00
11:53 am 11:53 Cloudy 64 17.8 57 13.9 78 78 WSW 3 6 29.83 1010 10 16 0.00 0.00
12:53 pm 12:53 Cloudy 64 17.8 57 13.9 78 78 SSW 7 11 29.84 1011 10 16 0.00 0.00
1:53 pm 13:53 Cloudy 64 17.8 57 13.9 78 78 SW 6 9 29.83 1010 10 16 0.00 0.00
2:53 pm 14:53 Cloudy 64 17.8 58 14.4 81 81 SW 5 7 29.81 1010 10 16 0.00 0.00
3:07 pm 15:07 Cloudy 64 17.8 58 14.4 81 81 SW 6 9 29.77 1008 10 16 0.00 0.00
3:17 pm 15:17 Cloudy 64 17.8 58 14.4 81 81 WSW 6 9 29.77 1008 10 16 0.00 0.00
3:27 pm 15:27 Cloudy 64 17.8 58 14.4 81 81 WSW 6 9 29.77 1008 10 16 0.00 0.00
3:53 pm 15:53 Cloudy 65 18.3 58 14.4 78 78 SSW 5 7 29.80 1009 10 16 0.00 0.00
4:15 pm 16:15 Cloudy 65 18.3 58 14.4 78 78 SSW 5 7 29.77 1008 10 16 0.00 0.00
4:38 pm 16:38 Cloudy 66 19 57 14 73 73 S 7 11 29.77 1008 10 16 0.00 0.00
4:53 pm 16:53 Cloudy 64 17.8 57 13.9 78 78 S 5 7 29.80 1009 10 16 0.00 0.00
5:53 pm 17:53 Cloudy 65 18.3 57 13.9 76 76 S 6 9 29.79 1009 10 16 0.00 0.00
6:08 pm 18:08 Cloudy 66 19 57 14 73 73 S 5 7 29.74 1007 10 16 0.00 0.00
6:53 pm 18:53 Cloudy 65 18.3 58 14.4 78 78 S 6 9 29.77 1008 10 16 0.00 0.00
7:53 pm 19:53 Cloudy 64 17.8 58 14.4 81 81 SSE 6 9 29.76 1008 10 16 0.00 0.00
8:53 pm 20:53 Cloudy 63 17.2 58 14.4 84 84 SE 5 7 29.77 1008 10 16 0.00 0.00
9:16 pm 21:16 Cloudy 63 17 57 14 83 83 SSE 5 7 29.74 1007 10 16 0.00 0.00
9:53 pm 21:53 Cloudy 63 17.2 59 15 87 87 S 5 7 29.78 1009 10 16 0.00 0.03
10:27 pm 22:27 Mostly Clear 62 16.7 59 15 90 90 SSE 5 7 29.74 1007 10 16 0.00 0.00
10:53 pm 22:53 Clear 61 16.1 59 15 93 93 SSE 6 9 29.78 1008 10 16 0.00 0.00
11:25 pm 23:25 Mostly Cloudy 61 16.1 59 15 93 93 SSW 3 6 29.77 1008 10 16 0.00 0.00
11:46 pm 23:46 Cloudy 61 16 59 15 94 94 S 6 9 29.77 1008 10 16 0.00 0.00
11:53 pm 23:53 Mostly Cloudy 61 16.1 59 15 93 93 S 7 11 29.77 1008 10 16 0.00 0.00

Powered by AerisWeather